Regional Weather Roundup
Issued by NWS Newport/Morehead, NC

Current Version | Previous Version | Text Only | Print | Product List | Glossary On
Versions: 1 2 3 4 5 6 7 8 9 10 11 12 13 14 15 16 17 18 19 20 21 22 23 24 25 26 27 28 29 30 31 32 33 34 35 36 37 38 39 40 41 42 43 44 45 46 47 48 49 50
000
ASUS42 KMHX 240110
RWRMHX
WEATHER ROUNDUP FOR EASTERN NORTH CAROLINA
NATIONAL WEATHER SERVICE NEWPORT/MOREHEAD CITY NC
900 PM EDT TUE SEP 23 2014

NOTE: "FAIR" INDICATES FEW OR NO CLOUDS BELOW 12,000 FEET
WITH NO SIGNIFICANT WEATHER AND/OR OBSTRUCTIONS TO VISIBILITY

NCZ015>017-031-032-045>047-102-103-240200-
NORTH COAST

CITY           SKY/WX    TMP DP  RH WIND       PRES   REMARKS
EDENTON        CLOUDY    60  56  85 N8        30.28S
ELIZABETH CITY CLOUDY    63  55  75 N12       30.28R
KITTY HAWK     CLOUDY    67  58  72 NE8G18    30.24S
MANTEO         CLOUDY    66  59  76 N18G24    30.24S

$$

NCZ045>047-081-094-103-104-240200-
CENTRAL COAST

CITY           SKY/WX    TMP DP  RH WIND       PRES   REMARKS
FRISCO         CLOUDY    68  63  84 NE14G29   30.18R
SWANQUARTER      N/A     64 N/A N/A VRB14     30.18S

$$

NCZ095-097-098-100-101-240200-
SOUTHERN COAST

CITY           SKY/WX    TMP DP  RH WIND       PRES   REMARKS
BEAUFORT       CLOUDY    66  61  84 N20G28    30.20R
CEDAR ISLAND     N/A     68 N/A N/A N28G36    30.24S
JACKSONVILLE   LGT RAIN  60  58  92 N14       30.22R
NEWPORT        NOT AVBL
PINEY ISLAND   CLOUDY    69  60  73 N20G29    30.21R
WILMINGTON     LGT RAIN  60  58  92 N15G23    30.20F


$$

NCZ011>013-027>030-043-044-078>080-089-090>093-098-240200-
COASTAL PLAIN

CITY           SKY/WX    TMP DP  RH WIND       PRES   REMARKS
AHOSKIE        CLOUDY    57  54  88 CALM      30.32R
CLINTON        LGT RAIN  58  57  94 N6        30.28R
ELIZABETHTOWN  LGT RAIN  58  57  97 CALM      30.25R
GOLDSBORO      CLOUDY    59  58  97 N1        30.27S
GREENVILLE     CLOUDY    59  54  82 N8        30.29S
HAVELOCK       CLOUDY    63  59  87 N15       30.23R
KENANSVILLE    CLOUDY    59  57  94 N9        30.28R
KINSTON        CLOUDY    59  55  88 N10       30.28R
NEW BERN       LGT RAIN  62  58  86 N10       30.25R
RICHLANDS      CLOUDY    59  54  82 N10G17    30.24S
ROANOKE RAPIDS NOT AVBL
ROCKY MOUNT    CLOUDY    58  54  86 N6        30.31R
WASHINGTON     CLOUDY    58  55  87 N8        30.27R
WHITEVILLE     LGT RAIN  59  57  92 N5        30.22S

$$

AMZ130-135-150-152-154-156-158-170-250-252-270-ANZ085-086-088-633-658-670-240200-
MARINE OBSERVATIONS

STATION/POSITION TIME  TEMP    WIND        PRES    WAVE   SWELL
                       AIR SEA DIR/SP/G            HT/PER HT/PER
                 (UTC) (F)     (DEG/KT/KT) (MB)    (FT/S) (FT/S)
CHESAPEAKE LIGHT 0000   66      50/ 20/ 24 1026.0
BUOY 44014       0100   70 75   50/ 19/ 25 1023.7    5/ 7   2/ 8
DUCK             0100   68 73   30/ 21/ 24 1023.8
2E DUCK          0100                        N/A     5/ 5
OREGON INLET     0100           20/ 17/ 25   N/A
BUOY 44095       0100      74                N/A     7/ 6
20E OREGON INLET NOT AVBL
HATTERAS CG      NOT AVBL
DIAMOND BUOY     0100   70      10/ 27/ 35 1020.0    8/ 8   2/12
CAPE LOOKOUT     0000   67      10/ 21/ 26 1021.5
BEAUFORT LAB     0100   66 74   10/ 16/ 23 1021.5
30 SE NEW RIVER  0100   70 81   20/ 29/ 33 1019.8    8/ 7
5 SE WRIGHTSVILL 0000   62 78   20/ 23/ 27   N/A
BUOY 41002       0004   78 81  120/ 10/ 12 1019.0    3/ 7   3/ 7
BUOY 41004       0100   72 81   20/ 27/ 35 1017.8    9/ 8

$$


USA.gov is the U.S. government's official web portal to all federal, state and local government web resources and services.